Regional Weather Roundup
Issued by NWS Green Bay, WI

Home | Current Version | Previous Version | Graphics & Text | Print | Product List | Glossary Off
Versions: 1 2 3 4 5 6 7 8 9 10 11 12 13 14 15 16 17 18 19 20 21 22 23 24 25 26 27 28 29 30 31 32 33 34 35 36 37 38 39 40 41 42 43 44 45 46 47 48 49 50

000
ASUS43 KGRB 270511
RWRGRB

NORTH-CENTRAL AND NORTHEAST WISCONSIN REGIONAL WEATHER ROUNDUP
NATIONAL WEATHER SERVICE GREEN BAY WI
1200 AM CDT WED MAY 27 2015

WIZ005-009-010>012-018-019-270600-
NORTH CENTRAL WISCONSIN

CITY           SKY/WX    TMP DP  RH WIND       PRES   REMARKS
IRONWOOD       CLOUDY    46  46 100 W6        29.73S VSB 1/2
MANITOWISH WTR DRIZZLE   52  52 100 NW8       29.71S
ARBOR VITAE    CLOUDY    57  55  95 N9        29.69F
EAGLE RIVER    DRIZZLE   57  56  99 N9        29.67S
LAND O LAKES   RAIN      56  55  99 N9        29.70S
RHINELANDER    LGT RAIN  58  57  97 VRB6      29.67S FOG
PHILLIPS       RAIN      52  52 100 NW8       29.73R
ANTIGO         CLOUDY    59  59  99 N8        29.64S
TOMAHAWK       DRIZZLE   57  56  95 NW9       29.69R
MERRILL        RAIN      60  60 100 NW9       29.67R
$$

WIZ013-073-270600-
NORTHEAST WISCONSIN

CITY           SKY/WX    TMP DP  RH WIND       PRES   REMARKS
IRON MOUNTAIN  LGT RAIN  57  55  93 NE9       29.62F FOG
MARINETTE      CLOUDY    54  52  94 E6        29.61F
OCONTO         MOCLDY    63  61  94 SW9G18    29.62R
$$

WIZ017-030-035>037-045-270600-
CENTRAL WISCONSIN

CITY           SKY/WX    TMP DP  RH WIND       PRES   REMARKS
MEDFORD        DRIZZLE   56  55  97 NW9       29.72R
WAUSAU         HVY RAIN  61  60  97 W14       29.66R FOG
MOSINEE        RAIN      59  59 100 NW17G23   29.66R
MARSHFIELD     LGT RAIN  59  56  89 NW15      29.70R
WISC RAPIDS    CLOUDY    60  57  89 W13       29.70R
STEVENS POINT  HVY RAIN  60  59  99 NW13G20   29.64R
WAUPACA        CLOUDY    63  62  97 SW16G22   29.64S FOG
SHAWANO        CLOUDY    63  61  93 SW7       29.63S
CLINTONVILLE   CLOUDY    61  59  94 SW13      29.63S
$$

WIZ038-039-048-051-270600-
FOX VALLEY

CITY           SKY/WX    TMP DP  RH WIND       PRES   REMARKS
NWS GREEN BAY  CLOUDY    64  59  83 SW13G22   29.65S
APPLETON       CLOUDY    61  57  88 SW23G30   29.67S
OSHKOSH        CLOUDY    64  57  78 SW14G25   29.70R
FOND DU LAC    CLOUDY    63  57  81 SW16G26   29.73R
$$

WIZ022-050-052-270600-
EAST CENTRAL WISCONSIN

CITY           SKY/WX    TMP DP  RH WIND       PRES   REMARKS
STURGEON BAY   CLOUDY    57  54  88 S9        29.66S
MANITOWOC      CLOUDY    65  58  78 SW18G26   29.69S
SHEBOYGAN      CLEAR     63  57  81 SW21G35   29.72R
$$

LMZ563-521-522-541>543-270600-
LAKESHORE

STATION/POSITION TIME  TEMP    WIND        PRES    VSBY  WAVE
                       AIR SEA DIR/SP/G                  HT/PER
                 (UTC) (F)     (DEG/KT/KT) (MB)    (MI)  (FT/S)
SHEBOYGAN LKSHOR 0500   65     220/ 20/ 23 1006.7R
KEWAUNEE LKSHORE 0400   49     190/  9/ 11 1003.9S
NORTHPORT PIER   0400   48     160/ 10/ 13 1004.4F
N MID LAKE BUOY  0450   44 37  190/ 16/ 16 1004.4F         2/ 3
SISTER BAY LKSHO 0403   49     160/  9/ 14   N/A
CHAMBERS ISLAND  0400   55     130/  4/  6 1004.1F
MENOMINEE LKSHOR 0400   53     110/  7/  7 1004.2F
$$


USA.gov is the U.S. government's official web portal to all federal, state and local government web resources and services.